Greeley, CO

6:16 AM MST on November 15, 2019 (GMT -0700)
Greeley-Weld County

Weather History for KGXY - October, 2019

Change the Weather History Date:

Monday, October 21, 2019

  Actual Average Record
Temperature  
Mean Temperature 42 °F -  
Max Temperature 54 °F - 82 °F (1992)
Min Temperature 30 °F - 23 °F (1996)
Degree Days  
Heating Degree Days 23    
Month to date heating degree days 349  
Cooling Degree Days 0    
Month to date cooling degree days 0  
Moisture  
Dew Point 19 °F    
Average Humidity 40    
Maximum Humidity 60    
Minimum Humidity 21    
Precipitation  
Precipitation 0.00 in - 0.35 in (1979)
Snow  
Snow 0.00 in - - ()
Snow Depth 0.00 in    
Sea Level Pressure  
Sea Level Pressure 30.01 in    
Wind  
Wind Speed 17 mph ()    
Max Wind Speed 30 mph    
Max Gust Speed 39 mph    
Visibility 10.0 miles    
Events      
T = Trace of Precipitation, MM = Missing Value Source: Averaged Metar Reports

Daily Weather History Graph

Daily Weather History Graph

Search for Another Location

Airport or City:

Astronomy

Oct. 21, 2019 Rise Set
Actual Time 7:15 AM MDT 6:09 PM MDT
Civil Twilight 6:48 AM MDT 6:37 PM MDT
Nautical Twilight 6:16 AM MDT 7:09 PM MDT
Astronomical Twilight 5:44 AM MDT 7:40 PM MDT
Moon No Moon Rise 2:36 PM MDT (10/21)
Length of Visible Light 11h 49m
Length of Day
10h 54m
Waning Gibbous, 47% of the Moon is Illuminated
Oct 21
Waning Gibbous
Oct 27
New
Nov 4
First Quarter
Nov 12
Full
Nov 19
Last Quarter

Hourly Weather History & Observations

Time (MDT) Temp. Windchill Dew Point Humidity Pressure Visibility Wind Dir Wind Speed Gust Speed Precip Events Conditions
12:56 AM 37.9 °F 27.3 °F 25.0 °F 60% 29.92 in - NNW 21.9 mph - N/A   Unknown
1:56 AM 37.9 °F 27.3 °F 24.1 °F 57% 29.92 in 10.0 mi NNW 21.9 mph - N/A   Clear
2:56 AM 39.0 °F 31.4 °F 19.9 °F 46% 29.91 in 10.0 mi NNW 12.7 mph - N/A   Mostly Cloudy
3:56 AM 36.0 °F 28.0 °F 17.1 °F 46% 29.94 in 10.0 mi NNW 11.5 mph - N/A   Clear
4:56 AM 37.0 °F 27.4 °F 16.0 °F 42% 29.93 in 10.0 mi NW 17.3 mph - N/A   Clear
5:56 AM 39.0 °F 28.0 °F 16.0 °F 39% 29.93 in 10.0 mi NNW 25.3 mph 35.7 mph N/A   Clear
6:56 AM 37.0 °F 26.7 °F 17.1 °F 44% 29.96 in 10.0 mi NNW 19.6 mph - N/A   Clear
7:56 AM 37.9 °F 28.9 °F 18.0 °F 45% 29.97 in 10.0 mi NNW 16.1 mph - N/A   Scattered Clouds
8:56 AM 42.1 °F 34.9 °F 18.0 °F 38% 30.00 in 10.0 mi NW 13.8 mph - N/A   Overcast
9:56 AM 46.9 °F - 16.0 °F 29% 29.98 in 10.0 mi NW 16.1 mph - N/A   Mostly Cloudy
10:56 AM 50.0 °F - 16.0 °F 26% 29.97 in 10.0 mi NNW 21.9 mph 26.5 mph N/A   Clear
11:56 AM 52.0 °F - 12.9 °F 21% 29.95 in 10.0 mi North 28.8 mph 35.7 mph N/A   Partly Cloudy
12:56 PM 53.1 °F - 15.1 °F 22% 29.96 in 10.0 mi NNW 26.5 mph 33.4 mph N/A   Partly Cloudy
1:56 PM 52.0 °F - 15.1 °F 23% 29.97 in 10.0 mi NNW 26.5 mph 34.5 mph N/A   Partly Cloudy
2:56 PM 51.1 °F - 17.1 °F 26% 29.98 in 10.0 mi NNW 23.0 mph 36.8 mph N/A   Partly Cloudy
3:56 PM 51.1 °F - 16.0 °F 25% 30.00 in 10.0 mi NW 29.9 mph 36.8 mph N/A   Scattered Clouds
4:56 PM 50.0 °F - 16.0 °F 26% 30.04 in 10.0 mi NNW 25.3 mph - N/A   Partly Cloudy
5:56 PM 48.0 °F - 19.0 °F 32% 30.06 in 10.0 mi NW 23.0 mph 28.8 mph N/A   Clear
6:56 PM 46.9 °F - 21.0 °F 36% 30.11 in 10.0 mi NW 16.1 mph - N/A   Partly Cloudy
7:56 PM 45.0 °F 37.6 °F 23.0 °F 42% 30.14 in 10.0 mi NNW 17.3 mph - N/A   Partly Cloudy
8:56 PM 42.1 °F 33.9 °F 26.1 °F 53% 30.15 in 10.0 mi NNW 17.3 mph - N/A   Partly Cloudy
9:56 PM 39.9 °F 31.1 °F 27.0 °F 60% 30.16 in 10.0 mi North 17.3 mph - N/A   Scattered Clouds
10:56 PM 41.0 °F 34.3 °F 28.0 °F 60% 30.17 in 10.0 mi North 11.5 mph - N/A   Overcast
11:56 PM 41.0 °F 35.2 °F 28.0 °F 60% 30.18 in 10.0 mi NNW 9.2 mph - N/A   Overcast